Location: Bottenau
(48.5138°N, 8.0462°E)
Time: 20:02:08
(UTC+00:00)

Cosmos 2237 Rocket - Pass Details

Date: 18 April 2021
Orbit: 836 x 848 km, 71.0° (Epoch: 17 May)

Event Time Altitude Azimuth Distance (km) Brightness Sun altitude
Rises 21:17:43 0° 325° (NW) 3,404 6.8 -23.9°
Reaches altitude 10° 21:20:22 10° 317° (NW) 2,463 5.7 -24.1°
Maximum altitude 21:25:22 34° 254° (WSW) 1,357 3.4 -24.6°
Enters shadow 21:27:11 27° 219° (SW) 1,545 3.4 -24.7°
